Time,TemperatureF,DewpointF,PressureIn,WindDirection,WindDirectionDegrees,WindSpeedMPH,WindSpeedGustMPH,Humidity,HourlyPrecipIn,Conditions,Clouds,dailyrainin,SoftwareType,DateUTC
2013-02-23 00:13:00,31.7,31.0,30.26,SE,124,0.0,0.0,95,0.00,,,0.00,weatherlink.com 1.10,2013-02-23 05:13:00,
2013-02-23 00:28:00,31.4,30.0,30.26,SE,124,0.0,0.0,95,0.00,,,0.00,weatherlink.com 1.10,2013-02-23 05:28:00,
2013-02-23 00:43:00,31.2,30.0,30.24,SE,124,0.0,0.0,95,0.00,,,0.00,weatherlink.com 1.10,2013-02-23 05:43:00,
2013-02-23 00:58:00,32.2,31.0,30.23,SE,124,0.0,0.0,95,0.00,,,0.00,weatherlink.com 1.10,2013-02-23 05:58:00,
2013-02-23 01:13:00,32.8,32.0,30.24,SE,124,0.0,0.0,95,0.00,,,0.00,weatherlink.com 1.10,2013-02-23 06:13:00,
2013-02-23 01:28:00,32.0,31.0,30.23,SE,124,0.0,0.0,95,0.00,,,0.00,weatherlink.com 1.10,2013-02-23 06:28:00,
2013-02-23 01:43:00,32.7,32.0,30.22,SE,124,0.0,0.0,95,0.00,,,0.00,weatherlink.com 1.10,2013-02-23 06:43:00,
2013-02-23 01:58:00,32.2,31.0,30.22,SE,124,0.0,0.0,95,0.00,,,0.00,weatherlink.com 1.10,2013-02-23 06:58:00,
2013-02-23 02:13:00,31.6,30.0,30.21,SE,124,0.0,0.0,95,0.00,,,0.00,weatherlink.com 1.10,2013-02-23 07:13:00,
2013-02-23 02:28:00,38.0,37.0,30.20,SE,124,0.0,0.0,96,0.00,,,0.00,weatherlink.com 1.10,2013-02-23 07:28:00,
2013-02-23 02:43:00,40.5,40.0,30.19,SE,125,0.0,0.0,96,0.00,,,0.00,weatherlink.com 1.10,2013-02-23 07:43:00,
2013-02-23 02:58:00,42.5,42.0,30.18,SSE,148,7.0,15.0,96,0.00,,,0.00,weatherlink.com 1.10,2013-02-23 07:58:00,
2013-02-23 03:13:00,42.2,41.0,30.18,NNW,332,5.0,10.0,96,0.00,,,0.00,weatherlink.com 1.10,2013-02-23 08:13:00,
2013-02-23 03:28:00,47.0,46.0,30.19,South,187,10.0,15.0,96,0.00,,,0.00,weatherlink.com 1.10,2013-02-23 08:28:00,
2013-02-23 03:43:00,47.4,45.0,30.19,WSW,238,4.0,12.0,91,0.01,,,0.01,weatherlink.com 1.10,2013-02-23 08:43:00,
2013-02-23 03:58:00,47.3,44.0,30.18,WNW,286,3.0,10.0,89,0.01,,,0.01,weatherlink.com 1.10,2013-02-23 08:58:00,
2013-02-23 04:13:00,46.9,44.0,30.17,WNW,289,4.0,13.0,89,0.01,,,0.01,weatherlink.com 1.10,2013-02-23 09:13:00,
2013-02-23 04:28:00,46.6,44.0,30.17,WNW,294,2.0,14.0,89,0.05,,,0.05,weatherlink.com 1.10,2013-02-23 09:28:00,
2013-02-23 04:43:00,45.8,43.0,30.17,NNW,327,4.0,11.0,90,0.07,,,0.08,weatherlink.com 1.10,2013-02-23 09:43:00,
2013-02-23 04:58:00,43.0,41.0,30.16,North,360,4.0,8.0,93,0.09,,,0.10,weatherlink.com 1.10,2013-02-23 09:58:00,
2013-02-23 05:13:00,43.1,42.0,30.16,NNW,348,6.0,10.0,94,0.11,,,0.12,weatherlink.com 1.10,2013-02-23 10:13:00,
2013-02-23 05:28:00,43.5,42.0,30.13,NNW,332,6.0,9.0,94,0.08,,,0.13,weatherlink.com 1.10,2013-02-23 10:28:00,
2013-02-23 05:43:00,43.9,42.0,30.12,NW,317,9.0,9.0,94,0.06,,,0.14,weatherlink.com 1.10,2013-02-23 10:43:00,
2013-02-23 05:58:00,43.4,42.0,30.12,North,360,4.0,8.0,93,0.05,,,0.15,weatherlink.com 1.10,2013-02-23 10:58:00,
2013-02-23 06:13:00,43.6,42.0,30.12,NNE,22,3.0,8.0,94,0.04,,,0.16,weatherlink.com 1.10,2013-02-23 11:13:00,
2013-02-23 06:28:00,43.6,42.0,30.11,North,5,2.0,8.0,94,0.04,,,0.17,weatherlink.com 1.10,2013-02-23 11:28:00,
2013-02-23 06:43:00,43.9,42.0,30.11,North,360,4.0,7.0,94,0.04,,,0.18,weatherlink.com 1.10,2013-02-23 11:43:00,
2013-02-23 06:58:00,44.0,42.0,30.11,North,5,6.0,10.0,94,0.04,,,0.19,weatherlink.com 1.10,2013-02-23 11:58:00,
2013-02-23 07:13:00,43.8,42.0,30.11,NNE,22,4.0,10.0,94,0.03,,,0.19,weatherlink.com 1.10,2013-02-23 12:13:00,
2013-02-23 07:43:00,42.3,41.0,30.12,NW,315,5.0,8.0,94,0.03,,,0.21,weatherlink.com 1.10,2013-02-23 12:43:00,
2013-02-23 07:58:00,42.2,41.0,30.11,North,360,6.0,10.0,94,0.03,,,0.22,weatherlink.com 1.10,2013-02-23 12:58:00,
2013-02-23 08:13:00,41.8,40.0,30.10,NNE,13,6.0,8.0,94,0.03,,,0.22,weatherlink.com 1.10,2013-02-23 13:13:00,
2013-02-23 08:28:00,41.6,40.0,30.12,North,355,6.0,8.0,94,0.03,,,0.23,weatherlink.com 1.10,2013-02-23 13:28:00,
2013-02-23 08:43:00,41.4,40.0,30.11,North,355,8.0,8.0,95,0.02,,,0.23,weatherlink.com 1.10,2013-02-23 13:43:00,
2013-02-23 08:58:00,41.8,41.0,30.11,North,355,5.0,11.0,95,0.02,,,0.24,weatherlink.com 1.10,2013-02-23 13:58:00,
2013-02-23 09:13:00,42.2,41.0,30.11,North,5,5.0,7.0,95,0.02,,,0.24,weatherlink.com 1.10,2013-02-23 14:13:00,
2013-02-23 09:28:00,42.7,41.0,30.11,NNW,330,5.0,11.0,95,0.02,,,0.25,weatherlink.com 1.10,2013-02-23 14:28:00,
2013-02-23 09:43:00,43.8,43.0,30.11,North,350,6.0,8.0,95,0.02,,,0.25,weatherlink.com 1.10,2013-02-23 14:43:00,
2013-02-23 09:58:00,45.1,44.0,30.10,North,355,5.0,10.0,95,0.02,,,0.26,weatherlink.com 1.10,2013-02-23 14:58:00,
2013-02-23 10:13:00,47.2,46.0,30.10,SSE,161,2.0,4.0,95,0.02,,,0.26,weatherlink.com 1.10,2013-02-23 15:13:00,
2013-02-23 10:28:00,46.4,45.0,30.10,SSW,200,2.0,4.0,94,0.01,,,0.26,weatherlink.com 1.10,2013-02-23 15:28:00,
2013-02-23 10:43:00,47.4,46.0,30.09,West,267,2.0,4.0,93,0.01,,,0.26,weatherlink.com 1.10,2013-02-23 15:43:00,
2013-02-23 10:58:00,48.1,46.0,30.09,North,355,5.0,6.0,92,0.00,,,0.26,weatherlink.com 1.10,2013-02-23 15:58:00,
2013-02-23 11:14:00,47.9,46.0,30.09,NNE,19,4.0,6.0,91,0.00,,,0.26,weatherlink.com 1.10,2013-02-23 16:14:00,
2013-02-23 11:44:00,48.3,46.0,30.08,NNE,33,2.0,6.0,91,0.00,,,0.26,weatherlink.com 1.10,2013-02-23 16:44:00,
2013-02-23 11:59:00,45.1,42.0,30.09,SSW,207,1.0,5.0,90,0.00,,,0.26,weatherlink.com 1.10,2013-02-23 16:59:00,
2013-02-23 12:14:00,43.4,41.0,30.09,South,183,4.0,5.0,91,0.00,,,0.26,weatherlink.com 1.10,2013-02-23 17:14:00,
2013-02-23 12:29:00,42.0,40.0,30.08,SSW,194,2.0,3.0,93,0.00,,,0.26,weatherlink.com 1.10,2013-02-23 17:29:00,
2013-02-23 12:45:00,42.1,40.0,30.08,South,173,1.0,4.0,93,0.00,,,0.26,weatherlink.com 1.10,2013-02-23 17:45:00,
2013-02-23 13:00:00,43.4,42.0,30.06,South,173,2.0,2.0,94,0.00,,,0.26,weatherlink.com 1.10,2013-02-23 18:00:00,
2013-02-23 13:14:00,45.5,44.0,30.05,South,174,2.0,4.0,94,0.00,,,0.26,weatherlink.com 1.10,2013-02-23 18:14:00,
2013-02-23 13:29:00,46.3,44.0,30.05,South,190,0.0,4.0,91,0.00,,,0.26,weatherlink.com 1.10,2013-02-23 18:29:00,
2013-02-23 13:44:00,45.5,43.0,30.05,SSW,196,2.0,4.0,90,0.00,,,0.26,weatherlink.com 1.10,2013-02-23 18:44:00,
2013-02-23 13:59:00,45.0,43.0,30.05,SSW,196,4.0,5.0,92,0.00,,,0.26,weatherlink.com 1.10,2013-02-23 18:59:00,
2013-02-23 14:14:00,44.5,42.0,30.04,South,190,1.0,5.0,92,0.00,,,0.26,weatherlink.com 1.10,2013-02-23 19:14:00,
2013-02-23 14:29:00,44.9,43.0,30.04,South,178,2.0,4.0,92,0.00,,,0.26,weatherlink.com 1.10,2013-02-23 19:29:00,
2013-02-23 14:44:00,44.8,43.0,30.04,South,190,2.0,6.0,92,0.00,,,0.26,weatherlink.com 1.10,2013-02-23 19:44:00,
2013-02-23 14:59:00,46.1,44.0,30.03,SE,138,3.0,5.0,92,0.00,,,0.26,weatherlink.com 1.10,2013-02-23 19:59:00,
2013-02-23 15:15:00,46.5,44.0,30.03,South,173,2.0,6.0,90,0.00,,,0.26,weatherlink.com 1.10,2013-02-23 20:15:00,
2013-02-23 15:30:00,47.0,45.0,30.02,SSE,167,1.0,3.0,92,0.00,,,0.26,weatherlink.com 1.10,2013-02-23 20:30:00,
2013-02-23 15:45:00,47.3,45.0,30.02,SSE,162,4.0,5.0,90,0.00,,,0.26,weatherlink.com 1.10,2013-02-23 20:45:00,
2013-02-23 16:00:00,46.2,44.0,30.02,SSE,167,1.0,7.0,92,0.00,,,0.26,weatherlink.com 1.10,2013-02-23 21:00:00,
2013-02-23 16:15:00,46.0,44.0,30.02,South,180,2.0,6.0,92,0.00,,,0.26,weatherlink.com 1.10,2013-02-23 21:15:00,
2013-02-23 16:30:00,45.5,43.0,30.01,South,178,1.0,3.0,92,0.00,,,0.26,weatherlink.com 1.10,2013-02-23 21:30:00,
2013-02-23 16:45:00,45.4,44.0,30.01,South,178,1.0,2.0,93,0.00,,,0.26,weatherlink.com 1.10,2013-02-23 21:45:00,
2013-02-23 17:00:00,45.6,44.0,30.00,South,178,1.0,2.0,93,0.00,,,0.26,weatherlink.com 1.10,2013-02-23 22:00:00,
2013-02-23 17:15:00,45.6,44.0,30.01,South,178,0.0,2.0,93,0.00,,,0.26,weatherlink.com 1.10,2013-02-23 22:15:00,
2013-02-23 17:30:00,45.2,43.0,29.99,SSW,207,2.0,4.0,93,0.00,,,0.26,weatherlink.com 1.10,2013-02-23 22:30:00,
2013-02-23 17:45:00,45.1,43.0,30.00,SSW,207,2.0,2.0,93,0.00,,,0.26,weatherlink.com 1.10,2013-02-23 22:45:00,
2013-02-23 18:00:00,45.3,43.0,29.99,SSW,207,0.0,1.0,93,0.00,,,0.26,weatherlink.com 1.10,2013-02-23 23:00:00,
2013-02-23 18:15:00,44.7,43.0,29.98,NNW,345,2.0,4.0,93,0.00,,,0.26,weatherlink.com 1.10,2013-02-23 23:15:00,
2013-02-23 18:30:00,44.2,42.0,29.98,NNE,13,2.0,4.0,93,0.00,,,0.26,weatherlink.com 1.10,2013-02-23 23:30:00,
2013-02-23 18:45:00,44.7,43.0,29.97,NNW,344,2.0,6.0,93,0.00,,,0.26,weatherlink.com 1.10,2013-02-23 23:45:00,
2013-02-23 19:00:00,45.0,43.0,29.97,North,360,2.0,6.0,92,0.00,,,0.26,weatherlink.com 1.10,2013-02-24 00:00:00,
2013-02-23 19:15:00,44.7,43.0,29.98,NNW,329,3.0,6.0,92,0.00,,,0.26,weatherlink.com 1.10,2013-02-24 00:15:00,
2013-02-23 19:30:00,44.7,43.0,29.98,NNE,14,4.0,6.0,93,0.00,,,0.26,weatherlink.com 1.10,2013-02-24 00:30:00,
2013-02-23 19:45:00,44.4,43.0,29.97,NNW,344,3.0,8.0,93,0.00,,,0.26,weatherlink.com 1.10,2013-02-24 00:45:00,
2013-02-23 20:00:00,44.3,42.0,29.97,North,350,5.0,7.0,93,0.00,,,0.26,weatherlink.com 1.10,2013-02-24 01:00:00,
2013-02-23 20:15:00,44.0,42.0,29.97,North,351,3.0,7.0,93,0.00,,,0.26,weatherlink.com 1.10,2013-02-24 01:15:00,
2013-02-23 20:30:00,44.1,43.0,29.97,NNW,331,4.0,7.0,94,0.00,,,0.26,weatherlink.com 1.10,2013-02-24 01:30:00,
2013-02-23 20:45:00,44.1,43.0,29.96,NNW,329,5.0,6.0,94,0.00,,,0.26,weatherlink.com 1.10,2013-02-24 01:45:00,
2013-02-23 21:00:00,44.5,42.0,29.97,NNW,329,4.0,6.0,92,0.00,,,0.26,weatherlink.com 1.10,2013-02-24 02:00:00,
2013-02-23 21:15:00,44.9,43.0,29.97,NNW,343,2.0,4.0,91,0.00,,,0.26,weatherlink.com 1.10,2013-02-24 02:15:00,
2013-02-23 21:30:00,44.5,42.0,29.97,NW,323,2.0,5.0,91,0.00,,,0.26,weatherlink.com 1.10,2013-02-24 02:30:00,
2013-02-23 21:45:00,45.4,42.0,29.98,NW,311,0.0,2.0,87,0.00,,,0.26,weatherlink.com 1.10,2013-02-24 02:45:00,
2013-02-23 22:00:00,45.4,41.0,29.97,NW,311,2.0,2.0,83,0.00,,,0.26,weatherlink.com 1.10,2013-02-24 03:00:00,
2013-02-23 22:15:00,45.2,41.0,29.97,NW,311,3.0,4.0,84,0.00,,,0.26,weatherlink.com 1.10,2013-02-24 03:15:00,
2013-02-23 22:30:00,45.1,40.0,29.97,WNW,302,2.0,5.0,82,0.00,,,0.26,weatherlink.com 1.10,2013-02-24 03:30:00,
2013-02-23 22:45:00,43.4,40.0,29.96,North,360,3.0,5.0,87,0.00,,,0.26,weatherlink.com 1.10,2013-02-24 03:45:00,
2013-02-23 23:00:00,41.4,39.0,29.95,North,5,4.0,5.0,92,0.00,,,0.26,weatherlink.com 1.10,2013-02-24 04:00:00,
2013-02-23 23:15:00,41.4,39.0,29.96,North,360,2.0,4.0,91,0.00,,,0.26,weatherlink.com 1.10,2013-02-24 04:15:00,
2013-02-23 23:30:00,41.8,39.0,29.95,NNE,17,4.0,9.0,89,0.00,,,0.26,weatherlink.com 1.10,2013-02-24 04:30:00,
2013-02-23 23:45:00,40.1,38.0,29.95,NNE,24,5.0,8.0,92,0.00,,,0.26,weatherlink.com 1.10,2013-02-24 04:45:00,